This demonstration page uses our WeatherBlox Daily Observations layout. Learn more.

Left ArrowRight Arrow

Hourly Observations for February 28, 2016

Temp ( °F °C ) Dew Point ( °F °C ) Humidity (%) Winds ( mph kmh ) Pressure ( in mb ) Visibility ( mi km ) Precip ( " mm )
12:53 am 00:53 Cloudy 33 0.6 31 -0.6 92 92 SW 8 13 30.01 1016 10 16 0.00 0.00
1:53 am 01:53 Cloudy 34 1.1 32 0 92 92 SW 9 15 30.02 1017 10 16 0.00 0.00
2:53 am 02:53 Partly Cloudy 32 0 31 -0.6 96 96 WSW 5 7 30.01 1016 10 16 0.00 0.00
3:15 am 03:15 Mostly Cloudy 33 0.6 32 0 96 96 WSW 8 13 30.06 1018 10 16 0.00 0.00
3:23 am 03:23 Mostly Clear 33 0.6 31 -0.6 92 92 SW 10 17 30.06 1018 10 16 0.00 0.00
3:53 am 03:53 Partly Cloudy 33 0.6 31 -0.6 92 92 SW 14 22 30.00 1016 10 16 0.00 0.00
4:53 am 04:53 Clear 31 -0.6 29 -1.7 92 92 SW 10 17 30.01 1016 10 16 0.00 0.00
5:53 am 05:53 Clear 29 -1.7 28 -2.2 96 96 W 7 11 30.01 1016 10 16 0.00 0.00
6:53 am 06:53 Clear 27 -2.8 26 -3.3 96 96 WNW 7 11 29.99 1016 10 16 0.00 0.00
7:53 am 07:53 Sunny 31 -0.6 29 -1.7 92 92 W 6 9 29.98 1015 10 16 0.00 0.00
8:53 am 08:53 Sunny 36 2.2 31 -0.6 82 82 SW 22 35 29.95 1014 10 16 0.00 0.00
9:53 am 09:53 Sunny 40 4.4 31 -0.6 70 70 SW 25 41 29.93 1013 10 16 0.00 0.00
10:53 am 10:53 Sunny 45 7.2 32 0 61 61 SW 21 33 29.90 1013 10 16 0.00 0.00
11:53 am 11:53 Sunny 50 10 35 1.7 57 57 SW 17 28 29.85 1011 10 16 0.00 0.00
12:53 pm 12:53 Sunny 53 11.7 28 -2.2 38 38 W 21 33 29.83 1010 10 16 0.00 0.00
1:53 pm 13:53 Sunny 52 11.1 30 -1.1 43 43 W 25 41 29.82 1010 10 16 0.00 0.00
2:53 pm 14:53 Mostly Cloudy 52 11.1 29 -1.7 41 41 W 20 31 29.80 1009 10 16 0.00 0.00
3:53 pm 15:53 Cloudy 52 11.1 30 -1.1 43 43 W 14 22 29.79 1009 10 16 0.00 0.00
4:53 pm 16:53 Cloudy 51 10.6 30 -1.1 44 44 WSW 8 13 29.79 1009 10 16 0.00 0.00
5:53 pm 17:53 Cloudy 47 8.3 31 -0.6 54 54 WSW 7 11 29.79 1009 10 16 0.00 0.00
6:53 pm 18:53 Cloudy 43 6.1 31 -0.6 63 63 WSW 7 11 29.79 1009 10 16 0.00 0.00
7:53 pm 19:53 Cloudy 45 7.2 31 -0.6 58 58 SW 13 20 29.77 1008 10 16 0.00 0.03
8:53 pm 20:53 Cloudy 49 9.4 31 -0.6 50 50 WNW 17 28 29.75 1007 10 16 0.00 0.00
9:53 pm 21:53 Mostly Clear 49 9.4 31 -0.6 50 50 W 21 33 29.73 1007 10 16 0.00 0.00
10:53 pm 22:53 Mostly Cloudy 47 8.3 30 -1.1 52 52 NW 16 26 29.75 1007 10 16 0.00 0.00
11:53 pm 23:53 Mostly Cloudy 37 2.8 29 -1.7 73 73 ENE 14 22 29.78 1009 10 16 0.00 0.00

Powered by AerisWeather